Bei Facebook empfehlenBei Twitter postenGoogle plusPinterest

Das Wetter im Erzgebirge am 17.12.2016

Wetter und Klima am 17.12.2016 Holzhau im Erzgebirge (630m ü.NN)
Letzte gemessene Temperatur und Uhrzeit der Messung23:45:00 Uhr-1.90 °C
Temperatur (Maximum / Höchstwert) und Uhrzeit der Messung14:15:00 Uhr3.40 °C
Temperatur (Minimum / Tiefstwert) und Uhrzeit der Messung09:00:00-7.30 °C
Errechneter Absolutwert der Temperaturschwankungen zwischen Tmin und Tmax des Tages10.70 K
Errechnete Tagesmitteltemperatur-2.72917 °C
Gesamt - Niederschlag des Tages (in flüssiger Form)0.00 Liter / m²
Luftdruck (Maximum / Höchstwert) und Zeitpunkt der Messung20:00:00 Uhr1031.30 hPa
Luftdruck (Minimum / Tiefstwert) und Zeitpunkt der Messung05:00:00 Uhr1027.60 hPa
Errechneter Absolutwert der Luftdruckschwankungen des Tages3.70 hPa
Höchste gemessene Windgeschwindigkeit und Uhrzeit der Messung23:45:00 Uhr0.00 km/h
Errechnete Windhäufigkeit in Relation zu den Messwerten des Tages0.00000 %
Niedrigste Windkühle (Windchill) und Zeitpunkt der Messung09:00:00 Uhr-7.30 °C
Taupunkt (Maximum / Höchstwert) und Uhrzeit der Messung14:00:00 Uhr2.10 °C
Taupunkt (Minimum / Tiefstwert) und Uhrzeit der Messung09:00:00-8.20 °C
Anzahl der automatisch eingelesenen Messwerte 96

Detaillierte Wetter- und Klima- Messwerte für den 17.12.2016 in Holzhau im Erzgebirge (630m ü.NN)
ZeitTemperaturLuftdruckRel. LuftfeuchteWindWindrichtungWindchillTaupunktNiederschlag l/m²
23:45:00-1.90 °C1030.70 hPa94.00 %-2.80 °C 
23:30:00-1.90 °C1030.70 hPa94.00 %-2.80 °C 
23:15:00-1.90 °C1030.80 hPa94.00 %-2.80 °C 
23:00:00-1.70 °C1030.90 hPa94.00 %-2.60 °C 
22:45:00-1.60 °C1031.00 hPa94.00 %-2.50 °C 
22:30:00-1.50 °C1030.90 hPa94.00 %-2.40 °C 
22:15:00-1.40 °C1031.00 hPa94.00 %-2.30 °C 
22:00:00-1.10 °C1030.90 hPa94.00 %-2.00 °C 
21:45:00-0.90 °C1030.90 hPa94.00 %-1.80 °C 
21:30:00-0.70 °C1030.90 hPa94.00 %-1.60 °C 
21:15:00-0.60 °C1031.00 hPa94.00 %-1.50 °C 
21:00:00-0.50 °C1031.00 hPa94.00 %-1.40 °C 
20:45:00-0.50 °C1031.00 hPa94.00 %-1.40 °C 
20:30:00-0.50 °C1031.10 hPa94.00 %-1.40 °C 
20:15:00-0.70 °C1031.10 hPa93.00 %-1.80 °C 
20:00:00-1.00 °C1031.30 hPa93.00 %-2.10 °C 
19:45:00-1.10 °C1031.10 hPa93.00 %-2.20 °C 
19:30:00-1.30 °C1031.10 hPa93.00 %-2.40 °C 
19:15:00-1.60 °C1031.10 hPa93.00 %-2.70 °C 
19:00:00-1.80 °C1031.20 hPa93.00 %-2.90 °C 
18:45:00-2.10 °C1031.30 hPa92.00 %-3.40 °C 
18:30:00-2.40 °C1031.20 hPa92.00 %-3.70 °C 
18:15:00-2.70 °C1031.30 hPa92.00 %-3.90 °C 
18:00:00-2.70 °C1031.20 hPa92.00 %-3.90 °C 
17:45:00-2.90 °C1031.20 hPa92.00 %-4.10 °C 
17:30:00-2.90 °C1031.20 hPa91.00 %-4.30 °C 
17:15:00-2.70 °C1031.00 hPa91.00 %-4.10 °C 
17:00:00-2.40 °C1031.10 hPa90.00 %-4.00 °C 
16:45:00-2.20 °C1031.00 hPa91.00 %-3.60 °C 
16:30:00-1.90 °C1030.90 hPa90.00 %-3.50 °C 
16:15:00-1.60 °C1030.90 hPa90.00 %-3.20 °C 
16:00:00-1.00 °C1030.50 hPa90.00 %-2.60 °C 
15:45:00-0.20 °C1030.60 hPa89.00 %-2.00 °C 
15:30:000.40 °C1030.60 hPa89.00 %-1.20 °C 
15:15:001.30 °C1030.50 hPa89.00 %-0.30 °C 
15:00:002.20 °C1030.50 hPa89.00 %0.60 °C 
14:45:002.80 °C1030.40 hPa89.00 %1.20 °C 
14:30:003.30 °C1030.40 hPa90.00 %1.80 °C 
14:15:003.40 °C1030.30 hPa90.00 %1.90 °C 
14:00:003.40 °C1030.30 hPa91.00 %2.10 °C 
13:45:003.10 °C1030.30 hPa92.00 %1.90 °C 
13:30:002.60 °C1030.20 hPa92.00 %1.40 °C 
13:15:002.40 °C1030.20 hPa93.00 %1.40 °C 
13:00:002.40 °C1030.10 hPa94.00 %1.50 °C 
12:45:002.20 °C1030.00 hPa95.00 %1.50 °C 
12:30:001.80 °C1029.80 hPa95.00 %1.10 °C 
12:15:001.30 °C1029.70 hPa95.00 %0.60 °C 
12:00:000.90 °C1029.40 hPa96.00 %0.30 °C 
11:45:000.30 °C1029.60 hPa96.00 %-0.30 °C 
11:30:00-0.10 °C1029.30 hPa96.00 %-0.70 °C 
11:15:00-0.50 °C1029.30 hPa95.00 %-1.30 °C 
11:00:00-1.10 °C1029.30 hPa95.00 %-1.90 °C 
10:45:00-2.10 °C1029.30 hPa96.00 %-2.70 °C 
10:30:00-3.20 °C1029.30 hPa95.00 %-4.00 °C 
10:15:00-4.40 °C1029.30 hPa95.00 %-5.20 °C 
10:00:00-5.50 °C1029.30 hPa95.00 %-6.30 °C 
09:45:00-6.60 °C1029.20 hPa94.00 %-7.50 °C 
09:30:00-7.00 °C1029.10 hPa94.00 %-7.90 °C 
09:15:00-7.20 °C1029.20 hPa94.00 %-8.10 °C 
09:00:00-7.30 °C1029.10 hPa94.00 %-8.20 °C 
08:45:00-7.30 °C1028.80 hPa94.00 %-8.20 °C 
08:30:00-7.10 °C1028.70 hPa94.00 %-8.00 °C 
08:15:00-7.10 °C1028.80 hPa94.00 %-8.00 °C 
08:00:00-6.90 °C1028.60 hPa94.00 %-7.80 °C 
07:45:00-6.70 °C1028.40 hPa94.00 %-7.60 °C 
07:30:00-6.40 °C1028.30 hPa94.00 %-7.30 °C 
07:15:00-6.60 °C1028.10 hPa94.00 %-7.50 °C 
07:00:00-6.70 °C1028.20 hPa94.00 %-7.60 °C 
06:45:00-6.50 °C1027.90 hPa94.00 %-7.40 °C 
06:30:00-6.40 °C1027.70 hPa94.00 %-7.30 °C 
06:15:00-6.40 °C1028.00 hPa94.00 %-7.30 °C 
06:00:00-6.10 °C1028.20 hPa94.00 %-7.00 °C 
05:45:00-6.30 °C1027.90 hPa94.00 %-7.20 °C 
05:30:00-6.20 °C1027.80 hPa94.00 %-7.10 °C 
05:15:00-6.10 °C1027.70 hPa94.00 %-7.00 °C 
05:00:00-5.70 °C1027.60 hPa94.00 %-6.60 °C 
04:45:00-5.40 °C1027.60 hPa94.00 %-6.30 °C 
04:30:00-5.40 °C1027.60 hPa94.00 %-6.30 °C 
04:15:00-5.40 °C1027.70 hPa94.00 %-6.30 °C 
04:00:00-5.20 °C1027.70 hPa94.00 %-6.10 °C 
03:45:00-5.30 °C1027.90 hPa94.00 %-6.20 °C 
03:30:00-5.10 °C1028.00 hPa94.00 %-6.00 °C 
03:15:00-5.40 °C1028.00 hPa94.00 %-6.30 °C 
03:00:00-5.10 °C1028.00 hPa94.00 %-6.00 °C 
02:45:00-4.70 °C1028.00 hPa94.00 %-5.60 °C 
02:30:00-5.10 °C1028.00 hPa94.00 %-6.00 °C 
02:15:00-5.00 °C1028.00 hPa94.00 %-5.90 °C 
02:00:00-4.40 °C1027.90 hPa94.00 %-5.30 °C 
01:45:00-4.10 °C1027.70 hPa94.00 %-5.00 °C 
01:30:00-4.10 °C1027.80 hPa94.00 %-5.00 °C 
01:15:00-4.20 °C1027.80 hPa94.00 %-5.10 °C 
01:00:00-4.40 °C1028.00 hPa94.00 %-5.30 °C 
00:45:00-4.40 °C1027.80 hPa94.00 %-5.30 °C 
00:30:00-4.40 °C1027.90 hPa94.00 %-5.30 °C 
00:15:00-3.90 °C1027.90 hPa94.00 %-4.80 °C 
00:00:00-3.40 °C1027.60 hPa94.00 %-4.30 °C 

Permanenter Link zu dieser Seite: Wetter im Erzgebirge am 17.12.2016
Performance-Info: Die Erstellung der Seite / Statistik(en) / Tabelle(n) erforderte 5 Datenbankserver-Abfrage(n) und dauerte 100 Millisekunden. (Dieser Messwert ist von der Gesamt-Auslastung des Servers abhängig.)
Erzgebirge - Wetter | Erzgebirge - Wetter (Mobilgeräte) | Komplette Klimadatenbank